EN

Hourly Weather Lukashenki

Today, 25 November, Wednesday

Time Temperature Precipitation Wind Pressure Humidity
00:00 +2°C° 0.1 mm 2 mps 746 mmHg 95%
01:00 +2°C° 0.1 mm 2 mps 746 mmHg 96%
02:00 +3°C° 0 mm 1 mps 746 mmHg 98%
03:00 +3°C° 0.7 mm 1 mps 746 mmHg 98%
04:00 +4°C° 0.7 mm 1 mps 745 mmHg 98%
05:00 +4°C° 0.7 mm 1 mps 745 mmHg 98%
06:00 +4°C° 1.2 mm 1 mps 745 mmHg 98%
07:00 +3°C° 1.2 mm 1 mps 746 mmHg 98%
08:00 +3°C° 0 mm 1 mps 746 mmHg 97%
09:00 +3°C° 0.1 mm 1 mps 746 mmHg 96%
10:00 +4°C° 0.1 mm 1 mps 747 mmHg 96%
11:00 +3°C° 0.1 mm 0 mps 747 mmHg 95%
12:00 +3°C° 0 mm 0 mps 747 mmHg 94%
13:00 +3°C° 0 mm 0 mps 748 mmHg 94%
14:00 +3°C° 0 mm 0 mps 748 mmHg 93%
15:00 +3°C° 0 mm 0 mps 749 mmHg 94%
16:00 +2°C° 0 mm 0 mps 749 mmHg 95%
17:00 +2°C° 0 mm 0 mps 749 mmHg 96%
18:00 +3°C° 0 mm 1 mps 749 mmHg 96%
19:00 +3°C° 0 mm 1 mps 749 mmHg 96%
20:00 +3°C° 0 mm 1 mps 749 mmHg 95%
21:00 +2°C° 0.1 mm 2 mps 749 mmHg 95%
22:00 +3°C° 0.1 mm 2 mps 749 mmHg 95%
23:00 +3°C° 0.1 mm 2 mps 749 mmHg 94%

Tomorrow, 26 November, Thursday

Time Temperature Precipitation Wind Pressure Humidity
00:00 +3°C° 0.6 mm 2 mps 749 mmHg 95%
01:00 +3°C° 0.6 mm 2 mps 749 mmHg 96%
02:00 +4°C° 0.6 mm 2 mps 749 mmHg 97%
03:00 +4°C° 0.6 mm 2 mps 748 mmHg 97%
04:00 +5°C° 0.6 mm 2 mps 748 mmHg 97%
05:00 +5°C° 0.6 mm 2 mps 748 mmHg 97%
06:00 +5°C° 0.1 mm 2 mps 748 mmHg 97%
07:00 +6°C° 0.1 mm 2 mps 748 mmHg 96%
08:00 +6°C° 0.1 mm 2 mps 748 mmHg 96%
09:00 +5°C° 0 mm 3 mps 747 mmHg 93%
10:00 +5°C° 0 mm 3 mps 747 mmHg 90%
11:00 +5°C° 0 mm 4 mps 747 mmHg 86%
12:00 +4°C° 0 mm 4 mps 747 mmHg 82%
13:00 +4°C° 0 mm 3 mps 747 mmHg 78%
14:00 +3°C° 0 mm 3 mps 746 mmHg 74%
15:00 +3°C° 0 mm 3 mps 746 mmHg 76%
16:00 +2°C° 0 mm 3 mps 746 mmHg 77%
17:00 +1°C° 0 mm 3 mps 745 mmHg 79%
18:00 +1°C° 0 mm 3 mps 745 mmHg 80%
19:00 +1°C° 0 mm 3 mps 745 mmHg 82%
20:00 0°C° 0 mm 3 mps 745 mmHg 83%
21:00 0°C° 0 mm 3 mps 745 mmHg 84%
22:00 0°C° 0 mm 3 mps 744 mmHg 85%
23:00 0°C° 0 mm 3 mps 744 mmHg 86%

Day after tomorrow, 27 November, Friday

Time Temperature Precipitation Wind Pressure Humidity
00:00 0°C° 0 mm 3 mps 744 mmHg 87%
01:00 0°C° 0 mm 3 mps 743 mmHg 89%
02:00 0°C° 0 mm 3 mps 743 mmHg 90%
03:00 0°C° 0.1 mm 3 mps 743 mmHg 91%
04:00 0°C° 0.1 mm 3 mps 742 mmHg 91%
05:00 0°C° 0.1 mm 3 mps 742 mmHg 92%
06:00 0°C° 0.4 mm 3 mps 742 mmHg 93%
07:00 0°C° 0.4 mm 3 mps 742 mmHg 93%
08:00 0°C° 0.4 mm 3 mps 742 mmHg 94%
09:00 +1°C° 0.6 mm 3 mps 741 mmHg 94%
10:00 +1°C° 0.6 mm 3 mps 741 mmHg 95%
11:00 +2°C° 0.6 mm 3 mps 741 mmHg 95%
12:00 +2°C° 0.4 mm 3 mps 741 mmHg 95%
13:00 +2°C° 0.4 mm 3 mps 741 mmHg 95%
14:00 +3°C° 0.4 mm 3 mps 741 mmHg 94%
15:00 +2°C° 0.9 mm 3 mps 741 mmHg 94%
16:00 +1°C° 0.9 mm 4 mps 741 mmHg 94%
17:00 +1°C° 0.9 mm 4 mps 741 mmHg 94%
18:00 +1°C° 0.1 mm 3 mps 742 mmHg 92%
19:00 +1°C° 0.1 mm 3 mps 742 mmHg 91%
20:00 0°C° 0.1 mm 3 mps 743 mmHg 89%
21:00 +1°C° 0.1 mm 2 mps 743 mmHg 91%
22:00 +1°C° 0.1 mm 2 mps 744 mmHg 93%
23:00 -1°C° 0.1 mm 2 mps 744 mmHg 95%

28 November, Saturday

Time Temperature Precipitation Wind Pressure Humidity
00:00 -1°C° 0.1 mm 2 mps 744 mmHg 95%
01:00 -1°C° 0.1 mm 2 mps 745 mmHg 94%
02:00 -1°C° 0.1 mm 2 mps 745 mmHg 94%
03:00 -1°C° 0 mm 2 mps 746 mmHg 94%
04:00 -2°C° 0 mm 2 mps 746 mmHg 93%
05:00 -2°C° 0 mm 2 mps 746 mmHg 93%
06:00 -2°C° 0 mm 2 mps 747 mmHg 92%
07:00 -2°C° 0 mm 2 mps 747 mmHg 92%
08:00 0°C° 0 mm 1 mps 748 mmHg 92%
09:00 -1°C° 0.1 mm 2 mps 748 mmHg 92%
10:00 -1°C° 0.1 mm 2 mps 749 mmHg 92%
11:00 +1°C° 0.1 mm 2 mps 750 mmHg 93%
12:00 +1°C° 0 mm 2 mps 750 mmHg 92%
13:00 +1°C° 0 mm 2 mps 750 mmHg 91%
14:00 +1°C° 0 mm 2 mps 750 mmHg 90%
15:00 +1°C° 0 mm 2 mps 751 mmHg 92%
16:00 +1°C° 0 mm 2 mps 751 mmHg 93%
17:00 -1°C° 0 mm 2 mps 751 mmHg 94%
18:00 -1°C° 0.1 mm 2 mps 752 mmHg 95%
19:00 -1°C° 0.1 mm 2 mps 752 mmHg 95%
20:00 -1°C° 0.1 mm 2 mps 752 mmHg 96%
21:00 -1°C° 0 mm 2 mps 752 mmHg 96%
22:00 -1°C° 0 mm 2 mps 753 mmHg 95%
23:00 -1°C° 0 mm 2 mps 753 mmHg 94%

29 November, Sunday

Time Temperature Precipitation Wind Pressure Humidity
00:00 -2°C° 0 mm 2 mps 753 mmHg 94%
01:00 -2°C° 0 mm 2 mps 753 mmHg 94%
02:00 -2°C° 0 mm 2 mps 753 mmHg 95%
03:00 -2°C° 0.1 mm 2 mps 753 mmHg 94%
04:00 -2°C° 0.1 mm 2 mps 753 mmHg 94%
05:00 -2°C° 0.1 mm 2 mps 753 mmHg 94%
06:00 -2°C° 0 mm 2 mps 753 mmHg 93%
07:00 -2°C° 0 mm 3 mps 754 mmHg 92%
08:00 -2°C° 0 mm 3 mps 754 mmHg 92%
09:00 -2°C° 0 mm 3 mps 754 mmHg 89%
10:00 -2°C° 0 mm 3 mps 754 mmHg 87%
11:00 -2°C° 0 mm 3 mps 754 mmHg 84%
12:00 -2°C° 0 mm 3 mps 754 mmHg 84%
13:00 -2°C° 0 mm 3 mps 754 mmHg 83%
14:00 -2°C° 0 mm 3 mps 754 mmHg 83%
15:00 -2°C° 0 mm 3 mps 753 mmHg 82%
16:00 -3°C° 0 mm 4 mps 753 mmHg 81%
17:00 -3°C° 0 mm 4 mps 753 mmHg 80%
18:00 -3°C° 0 mm 4 mps 753 mmHg 83%
19:00 -3°C° 0 mm 4 mps 753 mmHg 86%
20:00 -3°C° 0 mm 4 mps 753 mmHg 89%
21:00 -3°C° 0.1 mm 4 mps 752 mmHg 91%
22:00 -2°C° 0.1 mm 4 mps 752 mmHg 92%
23:00 -2°C° 0.1 mm 4 mps 752 mmHg 93%

30 November, Monday

Time Temperature Precipitation Wind Pressure Humidity
00:00 -2°C° 0.1 mm 5 mps 751 mmHg 94%
01:00 -2°C° 0.1 mm 5 mps 751 mmHg 94%
02:00 -2°C° 0.1 mm 5 mps 750 mmHg 95%
03:00 -1°C° 0.2 mm 5 mps 750 mmHg 95%
04:00 -1°C° 0.2 mm 5 mps 750 mmHg 96%
05:00 0°C° 0.2 mm 4 mps 749 mmHg 96%
06:00 0°C° 0.5 mm 4 mps 750 mmHg 96%
07:00 0°C° 0.5 mm 4 mps 750 mmHg 96%
08:00 +1°C° 0.5 mm 3 mps 750 mmHg 97%
09:00 +1°C° 0.3 mm 3 mps 750 mmHg 94%
10:00 0°C° 0.3 mm 3 mps 750 mmHg 91%
11:00 0°C° 0.3 mm 3 mps 750 mmHg 87%
12:00 0°C° 0 mm 3 mps 750 mmHg 85%
13:00 0°C° 0 mm 3 mps 750 mmHg 82%
14:00 -1°C° 0 mm 3 mps 750 mmHg 79%
15:00 -1°C° 0 mm 2 mps 750 mmHg 81%
16:00 -1°C° 0 mm 2 mps 750 mmHg 82%
17:00 -1°C° 0 mm 2 mps 750 mmHg 84%
18:00 -2°C° 0.1 mm 2 mps 751 mmHg 87%
19:00 -2°C° 0.1 mm 2 mps 751 mmHg 91%
20:00 -2°C° 0.1 mm 2 mps 751 mmHg 94%
21:00 -2°C° 0.1 mm 2 mps 751 mmHg 95%
22:00 -2°C° 0.1 mm 2 mps 752 mmHg 95%
23:00 -2°C° 0.1 mm 2 mps 752 mmHg 96%
Show more